Ana Sayfa
METAR-TAF:

METAR-TAF

Havaalanları :

Leigh Creek, Avustralya

Enlem: 30-35-54S, Boylam: 138-25-36E, yükseklik: 261 m

Güncel hava durumu gözlemi

Rapor saat 07:00 UTC de 1 saat ve 2 dakika önce yapıldı.
Rüzgar güneydan 9 kt
Sıcaklık 39°C
Nem 11%
Basınç 1010 hPa
Görüş mesafesi 10 km veya daha fazla

METAR: YLEC 280700Z AUTO 18009KT 9999 // NCD 39/03 Q1010

Saat: 18:32 (08:02 UTC)


TAF: eksik

4.000'den fazla havaalanı için hava durumu gözlemleri ve tahminleri (METAR ve TAF raporları).

Kullanılabilir istasyonlar harita üzerinde sarı ve kırmızı noktalarla gösterilir.

İstasyonun adını görmek için fareyi noktanın üzerinde gezdirin.

Sonrasında hava gözlem ve tahminlerini görmek için tıklayın.

Haritayı değiştirmek için: yaklaştırmak için siyah artı işaretli yeşil düğmeye ve uzaklaştırmak için de eksi işaretli düğmeye hızla tıklayın; bitişik haritalar için yeşil okları kullanın.


METAR-TAF: